PDT,Max TemperatureF,Mean TemperatureF,Min TemperatureF,Max Dew PointF,MeanDew PointF,Min DewpointF,Max Humidity, Mean Humidity, Min Humidity, Max Sea Level PressureIn, Mean Sea Level PressureIn, Min Sea Level PressureIn, Max VisibilityMiles, Mean VisibilityMiles, Min VisibilityMiles, Max Wind SpeedMPH, Mean Wind SpeedMPH, Max Gust SpeedMPH,PrecipitationIn, CloudCover, Events, WindDirDegrees
2012-9-1,79,67,55,44,38,33,58,39,19,30.05,29.99,29.88,10,10,2,26,16,53,0.00,0,,315
2012-9-2,81,68,55,44,42,36,62,43,24,30.08,30.04,30.00,10,10,10,24,15,33,0.00,0,,319
2012-9-3,84,65,46,45,42,34,71,44,17,30.09,30.04,29.98,10,10,10,24,11,32,0.00,0,,328
2012-9-4,84,66,48,46,42,38,74,47,19,30.18,30.11,30.04,10,10,10,10,5,23,0.00,0,,38
2012-9-5,88,66,46,48,44,40,77,48,20,30.07,29.97,29.84,10,10,10,21,4,30,0.00,0,,359
2012-9-6,84,67,50,45,42,38,71,44,21,30.11,30.04,29.94,10,10,5,8,3,,0.00,0,,128
2012-9-7,88,66,45,45,40,36,71,43,17,30.23,30.17,30.12,10,10,10,8,3,,0.00,0,,96
2012-9-8,90,68,46,52,43,37,71,42,16,30.14,30.02,29.84,10,10,2,13,4,22,0.00,1,Rain,95
2012-9-9,71,66,61,52,46,43,63,48,38,29.91,29.86,29.79,10,9,2,34,20,47,0.00,1,,310
2012-9-10,64,57,50,47,39,32,69,51,31,30.14,30.02,29.89,10,10,10,31,16,43,0.00,3,,302
2012-9-11,71,56,42,39,33,26,69,47,19,30.28,30.22,30.15,10,10,10,16,9,22,0.00,0,,302
2012-9-12,75,56,36,38,32,27,79,48,17,30.42,30.34,30.25,10,8,2,10,2,,0.00,3,,80
2012-9-13,81,58,36,42,33,28,73,45,17,30.38,30.28,30.16,10,8,4,8,3,,0.00,2,,99
2012-9-14,84,63,42,49,39,33,71,44,17,30.16,30.07,29.97,10,8,4,12,3,,0.00,4,,13
2012-9-15,86,68,53,44,41,37,55,36,20,30.07,30.04,30.01,10,10,10,26,12,34,0.00,1,,305
2012-9-16,84,64,46,45,40,34,74,42,17,30.19,30.13,30.08,10,9,4,15,5,,0.00,3,,47
2012-9-17,86,65,46,48,39,33,71,45,16,30.19,30.12,30.04,10,6,2,7,1,,0.00,7,,67
2012-9-18,86,63,42,46,39,35,76,48,20,30.11,30.06,29.98,10,4,2,15,3,,0.00,7,,1
2012-9-19,95,70,48,42,38,35,61,39,13,30.11,30.06,30.01,10,9,6,8,4,,0.00,0,,70
2012-9-20,90,68,46,45,40,34,66,45,17,30.14,30.06,30.00,9,5,1,7,3,,0.00,6,,58
2012-9-21,84,65,46,52,43,37,72,53,24,30.08,30.03,29.93,10,2,0,18,3,20,0.00,8,,339
2012-9-22,75,62,52,48,46,42,77,61,38,30.02,29.99,29.95,10,9,5,25,12,32,0.00,6,,328
2012-9-23,75,60,46,51,45,40,77,58,36,30.11,30.06,30.00,10,7,2,15,7,22,0.00,6,,301
2012-9-24,82,64,46,49,45,41,83,64,28,30.09,30.03,29.94,10,5,1,26,5,34,0.00,2,,27
2012-9-25,77,66,55,47,43,37,64,48,25,30.02,29.97,29.93,10,10,10,25,20,33,0.00,2,,314
2012-9-26,80,60,42,45,41,35,80,53,20,30.10,30.05,30.00,10,8,3,17,6,22,0.00,2,,45
2012-9-27,82,62,43,46,41,36,76,55,21,30.10,30.03,29.95,10,5,2,9,1,,0.00,3,,52
2012-9-28,77,60,44,50,43,37,77,51,32,29.99,29.95,29.90,10,4,2,18,3,23,0.00,5,,97
2012-9-29,78,68,57,52,46,39,67,49,34,30.14,30.05,29.97,10,10,10,28,14,38,0.00,0,,315
2012-9-30,80,64,48,41,35,28,59,37,15,30.29,30.24,30.16,10,10,8,22,12,30,0.00,0,,314